Mount Holly, NJ

8:55 AM EST on January 16, 2018 (GMT -0500)
South Jersey Regional

Weather History for KVAY - March, 2013

Change the Weather History Date:

Monday, March 18, 2013

  Actual Average (KPNE) Record (KPNE)
Temperature  
Mean Temperature 36 °F -  
Max Temperature 41 °F 48 °F 78 °F (2011)
Min Temperature 30 °F 31 °F 28 °F (2005)
Degree Days  
Heating Degree Days 30    
Moisture  
Dew Point 28 °F    
Average Humidity 76    
Maximum Humidity 97    
Minimum Humidity 47    
Precipitation  
Precipitation 0.56 in - - ()
Sea Level Pressure  
Sea Level Pressure 30.18 in    
Wind  
Wind Speed 6 mph (ENE)    
Max Wind Speed 13 mph    
Max Gust Speed 24 mph    
Visibility 6 miles    
Events Rain    
Averages and records for this station are not official NWS values.
T = Trace of Precipitation, MM = Missing Value Source: NWS Daily Summary

Daily Weather History Graph

Daily Weather History Graph

Search for Another Location

Airport or City:

Trip Planner

Search our weather history database for the weather conditions in past years. The results will help you decide how hot, cold, wet, or windy it might be!

Date:

Astronomy

Mar. 18, 2013 Rise Set
Actual Time 7:05 AM EDT 7:09 PM EDT
Civil Twilight 6:38 AM EDT 7:36 PM EDT
Nautical Twilight 6:07 AM EDT 8:08 PM EDT
Astronomical Twilight 5:35 AM EDT 8:40 PM EDT
Moon 11:03 AM EDT (3/18) 1:06 AM EDT (3/18)
Length of Visible Light 12h 57m
Length of Day
12h 03m
Waxing Crescent, 40% of the Moon is Illuminated
Mar 18
Waxing Crescent
Mar 19
First Quarter
Mar 27
Full
Apr 3
Last Quarter
Apr 10
New

Hourly Weather History & Observations

Time (EDT) Temp. Windchill Dew Point Humidity Pressure Visibility Wind Dir Wind Speed Gust Speed Precip Events Conditions
12:54 AM 30.0 °F - 19.9 °F 66% 30.31 in 10.0 mi Calm Calm - N/A   Clear
1:54 AM 30.9 °F 26.2 °F 18.0 °F 59% 30.32 in 10.0 mi North 4.6 mph - N/A   Clear
2:54 AM 30.0 °F - 18.0 °F 61% 30.34 in 10.0 mi Calm Calm - N/A   Clear
3:54 AM 30.0 °F 25.2 °F 16.0 °F 56% 30.35 in 10.0 mi NNE 4.6 mph - N/A   Clear
4:54 AM 30.0 °F 23.2 °F 16.0 °F 56% 30.35 in 10.0 mi NNE 6.9 mph - N/A   Clear
5:54 AM 30.0 °F 23.2 °F 15.1 °F 54% 30.36 in 10.0 mi NE 6.9 mph - N/A   Clear
6:54 AM 30.9 °F 24.3 °F 12.9 °F 47% 30.38 in 10.0 mi ENE 6.9 mph - N/A   Clear
7:54 AM 30.9 °F 24.3 °F 14.0 °F 50% 30.38 in 10.0 mi East 6.9 mph - N/A   Scattered Clouds
8:54 AM 32.0 °F 24.8 °F 16.0 °F 52% 30.37 in 10.0 mi East 8.1 mph - N/A   Mostly Cloudy
9:54 AM 33.1 °F 26.9 °F 18.0 °F 54% 30.37 in 10.0 mi ENE 6.9 mph - N/A   Overcast
10:54 AM 35.1 °F 27.9 °F 21.0 °F 57% 30.34 in 10.0 mi ENE 9.2 mph - N/A   Overcast
11:54 AM 39.0 °F 32.3 °F 21.9 °F 50% 30.32 in 10.0 mi East 10.4 mph - N/A   Overcast
12:54 PM 41.0 °F 35.8 °F 24.1 °F 51% 30.27 in 10.0 mi East 8.1 mph 17.3 mph N/A   Overcast
1:54 PM 39.9 °F 32.5 °F 26.1 °F 58% 30.24 in 10.0 mi East 12.7 mph 19.6 mph N/A   Overcast
2:35 PM 39.2 °F 32.5 °F 28.4 °F 65% 30.22 in 10.0 mi East 10.4 mph 18.4 mph N/A   Overcast
2:54 PM 37.9 °F 30.0 °F 28.9 °F 70% 30.22 in 8.0 mi East 12.7 mph 24.2 mph N/A   Overcast
3:50 PM 35.6 °F 28.0 °F 30.2 °F 81% 30.19 in 2.0 mi East 10.4 mph 17.3 mph N/A   Haze
3:54 PM 35.1 °F 27.9 °F 30.9 °F 85% 30.19 in 2.0 mi East 9.2 mph - N/A   Overcast
4:02 PM 35.6 °F 29.2 °F 32.0 °F 87% 30.18 in 1.8 mi ENE 8.1 mph - N/A   Overcast
4:11 PM 35.6 °F 29.9 °F 32.0 °F 87% 30.18 in 1.8 mi ENE 6.9 mph - N/A   Overcast
4:46 PM 35.6 °F 28.0 °F 33.8 °F 93% 30.15 in 1.5 mi East 10.4 mph 16.1 mph 0.01 in   Overcast
4:54 PM 35.1 °F 27.4 °F 33.1 °F 92% 30.15 in 1.2 mi East 10.4 mph - 0.01 in   Overcast
5:50 PM 35.6 °F 28.0 °F 33.8 °F 93% 30.11 in 2.5 mi East 10.4 mph 17.3 mph 0.00 in   Overcast
5:54 PM 36.0 °F 30.3 °F 33.1 °F 89% 30.12 in 3.0 mi East 6.9 mph 16.1 mph 0.00 in   Overcast
6:54 PM 36.0 °F 28.5 °F 34.0 °F 93% 30.08 in 2.0 mi East 10.4 mph 20.7 mph 0.04 in Rain Light Rain
7:01 PM 35.6 °F 27.5 °F 33.8 °F 93% 30.07 in 1.5 mi East 11.5 mph 18.4 mph 0.01 in Rain Rain
7:13 PM 35.6 °F 29.2 °F 33.8 °F 93% 30.07 in 2.5 mi East 8.1 mph - 0.04 in Rain Rain
7:26 PM 35.6 °F 27.1 °F 33.8 °F 93% 30.06 in 3.0 mi East 12.7 mph 16.1 mph 0.06 in Rain Light Rain
7:54 PM 37.0 °F 32.4 °F 35.1 °F 93% 30.06 in 5.0 mi ENE 5.8 mph - 0.06 in   Overcast
8:15 PM 37.4 °F 30.3 °F 35.6 °F 93% 30.05 in 2.0 mi East 10.4 mph - 0.02 in Rain Light Rain
8:26 PM 37.4 °F 32.1 °F 35.6 °F 93% 30.05 in 1.8 mi ENE 6.9 mph - 0.06 in Rain Rain
8:39 PM 37.4 °F 31.4 °F 35.6 °F 93% 30.04 in 2.0 mi ENE 8.1 mph - 0.09 in Rain Rain
8:49 PM 37.4 °F 31.4 °F 35.6 °F 93% 30.03 in 2.5 mi ENE 8.1 mph - 0.11 in Rain Rain
8:54 PM 37.0 °F 31.6 °F 36.0 °F 96% 30.03 in 3.0 mi ENE 6.9 mph - 0.13 in Rain Rain
9:54 PM 37.9 °F 32.1 °F 37.0 °F 97% 29.99 in 4.0 mi ENE 8.1 mph - 0.08 in Rain Light Rain
10:54 PM 39.0 °F 33.4 °F 37.0 °F 93% 29.98 in 5.0 mi North 8.1 mph - 0.14 in Rain Rain
11:54 PM 39.0 °F 32.8 °F 37.0 °F 93% 29.92 in 4.0 mi ENE 9.2 mph - 0.10 in Rain Rain